{"data":{"norad_id":67525,"epoch":"2026-09-20T14:40:45.112800Z","epoch_age_seconds":87064,"freshness":"FRESH","line1":"1 67525U 26013D   26263.61163325 -.00000105  00000+0  41930-4 0  9990","line2":"2 67525  50.0108  13.4685 0000888  97.6956 262.4017 13.29329367 32747","mean_motion":13.29329367,"eccentricity":8.88e-5,"inclination_deg":50.0108,"raan_deg":13.4685,"arg_perigee_deg":97.6956,"mean_anomaly_deg":262.4017,"bstar":4.193e-5,"rev_number":3274,"period_min":108.32529813509,"perigee_km":1148.625425367,"apogee_km":1149.962297088,"semimajor_km":7527.4308612275,"source":"CELESTRAK","updated_at":"2026-09-21T09:00:16.680433Z"}}